Regional Weather Roundup
Issued by NWS

Home | Current Version | Previous Version | Graphics & Text | Print | Product List | Glossary On
Versions: 1 2 3 4 5 6 7 8 9 10 11 12 13 14 15 16 17 18 19 20 21 22 23 24 25 26 27 28 29 30 31 32 33 34 35 36 37 38 39 40 41 42 43 44 45 46 47 48 49 50
000
ASUS43 KBIS 190310
RWRND

NORTH DAKOTA REGIONAL WEATHER ROUNDUP
NATIONAL WEATHER SERVICE BISMARCK ND
1000 PM CDT FRI APR 18 2014

NOTE: "FAIR" INDICATES FEW OR NO CLOUDS BELOW 12,000 FEET WITH NO
SIGNIFICANT WEATHER AND/OR OBSTRUCTIONS TO VISIBILITY.


NDZ001>003-009>011-017-190400-
NORTHWEST NORTH DAKOTA

CITY           SKY/WX    TMP DP  RH WIND       PRES   REMARKS
WILLISTON      PTCLDY    39  37  92 W3        29.67R FOG
MINOT          CLOUDY    42  37  82 E17       29.72S HAZE
MINOT AFB      LGT RAIN  41  39  93 E15       29.72F
$$

NDZ018>021-031>035-040>046-190400-
SOUTHWEST NORTH DAKOTA

CITY           SKY/WX    TMP DP  RH WIND       PRES   REMARKS
BISMARCK       CLOUDY    50  39  66 NE14      29.59F
DICKINSON      CLOUDY    48  40  73 N14       29.65R
GARRISON         N/A     45  37  73 E15       29.68R
HETTINGER ARPT CLOUDY    50  41  71 NW22G32   29.66R
$$

NDZ004>008-012>016-024-026-027-054-190400-
NORTHEAST NORTH DAKOTA

CITY           SKY/WX    TMP DP  RH WIND       PRES   REMARKS
GRAND FORKS    CLOUDY    45  27  49 SE29G40   29.92F
GRND FRKS AFB  CLOUDY    44  29  55 SE20G29   29.91F
DEVILS LAKE    MOCLDY    41  27  56 SE29G37   29.80F
$$

NDZ022-023-025-028>030-036>039-047>053-190400-
SOUTHEAST NORTH DAKOTA

CITY           SKY/WX    TMP DP  RH WIND       PRES   REMARKS
FARGO          CLOUDY    45  29  53 SE29G44   29.92F
JAMESTOWN      MOCLDY    44  35  70 SE29G46   29.74F
$$




USA.gov is the U.S. government's official web portal to all federal, state and local government web resources and services.